Location: Seattle
(47.6064°N, 122.3308°W)
Time: 01:44:28
(UTC-08:00)

Envisat - Pass Details

Date: 31 October 2020
Orbit: 764 x 766 km, 98.1° (Epoch: 03 December)

Event Time Altitude Azimuth Distance (km) Brightness Sun altitude
Rises 18:48:10 0° 186° (S) 3,220 6.5 -9.9°
Reaches altitude 10° 18:50:35 10° 193° (SSW) 2,298 5.8 -10.3°
Maximum altitude 18:55:20 40° 263° (W) 1,122 4.6 -11.1°
Drops below altitude 10° 19:00:08 10° 333° (NNW) 2,314 5.7 -11.9°
Sets 19:02:35 0° 341° (NNW) 3,245 6.4 -12.3°
